[[{"header":{"parameterUnit":"m.s-1","parameterCategory":1,"la1":30.2991,"la2":30.254,"lo1":-89.0895,"lo2":-89.0444,"dy":0.0017,"dx":0.0017,"nx":28,"ny":28,"refTime":"2025-08-07T21:00:00:Z","depth":0,"parameterNumber":2,"parameterNumberName":"U-component_of_WINDS"},"data":[0,0,0,0,0,0,0,0,0,0,0,0,0,0,0,0,0,0,0,0,0,0,0,0,0,0,0,0,0,0,0,0,0,0,0,0,0,0,0,0,0,0,0,0,0,0,0,0,0,0,0,0,0,0,0,0,0,0,-2.0205,-2.0204,0,-2.0125,-2.0124,-2.0123,-1.9996,-1.9994,-1.9992,-1.9989,-1.9914,-1.9914,-1.9914,0,0,0,0,0,0,0,0,0,0,0,0,0,-2.0252,-2.0252,-2.0205,-2.0204,-2.0203,-2.0125,-2.0124,-2.0123,-1.9997,-1.9994,-1.9991,-1.9988,-1.9914,-1.9914,-1.9915,0,0,0,0,0,0,0,0,0,0,0,0,0,-2.0208,-2.0251,-2.0205,-2.013,-2.0122,-2.0126,-2.0124,-2.0123,-1.9997,-1.9994,-1.999,-1.9987,-1.9914,-1.9914,-1.9915,-1.9986,0,0,-1.9915,-1.9915,0,0,0,0,0,0,0,0,-2.0211,-2.0206,-2.0142,-2.0135,-2.0127,-2.0067,-2.0113,-2.0077,-1.9998,-2.0045,-1.9989,-1.9985,-1.9968,-1.9964,-1.9957,-1.9983,-1.9979,-1.9915,-1.9915,-1.9916,-1.9916,0,0,0,0,0,0,0,-2.0214,-2.0209,-2.0173,-2.0141,-2.0132,-2.0102,-2.0092,-2.0106,-2.0028,-2.0041,-2.0031,-2.0023,-1.9963,-1.9957,-1.9954,-1.9978,-1.9915,-1.9916,-1.9916,-1.9916,-2.006,-2.0063,0,0,0,0,0,0,-2.0227,-2.0213,-2.0176,-2.0171,-2.0161,-2.0104,-2.0093,-2.009,-2.0027,-2.0014,-2.0026,-2.0018,-1.9958,-1.9954,-1.9951,-2.0031,-1.9916,-1.9916,-1.9916,-2.0056,-2.0061,-2.0065,0,0,0,0,0,0,-2.0229,-2.0225,-2.0179,-2.0189,-2.0181,-2.0107,-2.0105,-2.009,-2.0083,-2.0016,-2.0002,-2.0034,-1.9955,-1.9951,-1.9978,-2.0027,-1.9916,-1.9916,-2.0052,-2.0057,-2.0063,-2.0193,0,0,0,0,0,0,-2.0231,-2.0226,-2.0252,-2.0191,-2.0181,-2.0206,-2.0108,-2.0091,-2.0083,-2.0071,-2.0019,-2.0007,-1.9952,-1.9978,-1.9978,-2.0025,-1.9916,-2.0047,-2.0054,-2.0061,-2.0184,-2.0202,-2.0217,0,0,0,0,0,-2.0233,-2.0293,-2.0254,-2.025,-2.0211,-2.0209,-2.0204,-2.0138,-2.0088,-2.0113,-2.007,-2.0009,-2.0021,-1.9982,-1.9981,-2.0029,-2.0044,-2.0052,-2.006,-2.0176,-2.0198,-2.0217,0,0,0,0,0,0,-2.0364,-2.0283,-2.0239,-2.0281,-2.0253,-2.0188,-2.0218,-2.0163,-2.015,-2.014,-2.006,-2.0049,-2.0087,-2.006,-2.0018,-2.0095,-2.0023,-2.0032,-2.0112,-2.0132,-2.0149,-2.0155,-1.9917,0,0,0,0,0,-2.0397,-2.0401,-2.0331,-2.0375,-2.0362,-2.0293,-2.029,-2.0241,-2.021,-2.0198,-2.0156,-2.013,-2.0128,-2.0128,-2.0122,-2.0179,-2.0166,-2.0211,-2.0228,-2.0242,-2.0251,-2.028,-2.0299,-2.0092,-2.0092,-2.0091,0,0,-2.0467,-2.0423,-2.0431,-2.04,-2.0372,-2.038,-2.0284,-2.0296,-2.0301,-2.02,-2.0223,-2.0192,-2.0157,-2.02,-2.0217,-2.0179,-2.0305,-2.0253,-2.0264,-2.0265,-2.029,-2.031,-2.0328,-2.0097,-2.0096,-2.0095,0,0,-2.0597,-2.0564,-2.0597,-2.0571,-2.053,-2.0483,-2.0491,-2.0435,-2.041,-2.0431,-2.0355,-2.0361,-2.0359,-2.0337,-2.0326,-2.0449,-2.0392,-2.0449,-2.0538,-2.0567,-2.0584,-2.0598,-2.0643,-2.066,-2.0458,-2.0458,-2.0458,0,-2.069,-2.0696,-2.0621,-2.0638,-2.0627,-2.0533,-2.0567,-2.0546,-2.0507,-2.0502,-2.046,-2.0455,-2.0425,-2.0461,-2.0491,-2.0485,-2.0493,-2.0455,-2.0587,-2.06,-2.0613,-2.0655,-2.0672,-2.0465,-2.0464,-2.0464,-2.0463,0,-2.0813,-2.0818,-2.085,-2.0812,-2.0804,-2.083,-2.0761,-2.0762,-2.0714,-2.0673,-2.0697,-2.0657,-2.0642,-2.0646,-2.06,-2.0677,-2.0655,-2.0601,-2.0527,-2.0641,-2.0679,-2.0695,-2.0476,-2.0473,-2.0471,-2.0469,0,0,-2.1025,-2.0944,-2.0957,-2.0939,-2.0886,-2.089,-2.0912,-2.0895,-2.0899,-2.0875,-2.0892,-2.0892,-2.0841,-2.0829,-2.0779,-2.0805,-2.0906,-2.0747,-2.0745,-2.078,-2.099,-2.1032,-2.1052,-2.0867,-2.087,-2.0872,-2.0993,0,-2.1146,-2.1176,-2.111,-2.1157,-2.1163,-2.1074,-2.1092,-2.1064,-2.1026,-2.1026,-2.0984,-2.0986,-2.0918,-2.091,-2.0931,-2.0889,-2.0947,-2.0879,-2.0885,-2.0886,-2.0898,-2.1071,-2.1116,-2.1231,-2.1007,-2.101,-2.1012,0,-2.1292,-2.1273,-2.1321,-2.1265,-2.1265,-2.1283,-2.1262,-2.1263,-2.1229,-2.12,-2.1186,-2.1127,-2.1146,-2.1074,-2.11,-2.1056,-2.1054,-2.1034,-2.1037,-2.1036,-2.0957,-2.1077,-2.1267,-2.1285,-2.1034,-2.1033,-2.1031,0,-2.1443,-2.143,-2.1457,-2.1444,-2.138,-2.1395,-2.1369,-2.1331,-2.1325,-2.1308,-2.1304,-2.129,-2.1283,-2.1274,-2.1214,-2.1167,-2.1249,-2.1171,-2.1227,-2.1228,-2.1249,-2.1249,-2.1443,-2.1246,-2.1246,-2.1245,-2.1245,0,-2.1586,-2.162,-2.1524,-2.1541,-2.1576,-2.1499,-2.1537,-2.1502,-2.1469,-2.1479,-2.1402,-2.1413,-2.1332,-2.1336,-2.1289,-2.1319,-2.1316,-2.1294,-2.1282,-2.1302,-2.1305,-2.1301,-2.1292,-2.125,-2.1249,-2.1248,-2.1247,0,-2.1762,-2.1699,-2.1723,-2.1659,-2.1644,-2.1673,-2.162,-2.1634,-2.159,-2.1604,-2.1603,-2.1536,-2.1536,-2.1474,-2.1462,-2.143,-2.1481,-2.1453,-2.1492,-2.1484,-2.1543,-2.1539,-2.1743,-2.1766,-2.1554,-2.1556,-2.1558,0,-2.1858,-2.1881,-2.182,-2.182,-2.1798,-2.1799,-2.1792,-2.1719,-2.1715,-2.1678,-2.1697,-2.169,-2.1681,-2.1685,-2.1636,-2.1627,-2.1599,-2.1671,-2.1597,-2.1617,-2.1602,-2.1602,-2.1605,-2.1687,-2.169,-2.1692,-2.1694,0,-2.2036,-2.2003,-2.1995,-2.1977,-2.1971,-2.1954,-2.1932,-2.1937,-2.1856,-2.1856,-2.1854,-2.1847,-2.1833,-2.1828,-2.181,-2.1785,-2.1728,-2.1717,-2.173,-2.1752,-2.1774,-2.1764,-2.1536,-2.1713,-2.1711,-2.171,-2.1709,-2.1708,-2.2175,-2.2192,-2.2151,-2.2146,-2.2121,-2.2102,-2.2112,-2.2069,-2.2065,-2.2047,-2.2004,-2.201,-2.1976,-2.1944,-2.1925,-2.193,-2.1894,-2.1912,-2.1917,-2.1923,-2.1935,-2.1772,-2.1926,-2.1925,-2.1925,-2.1924,-2.1924,0,-2.235,-2.2319,-2.2314,-2.2285,-2.2281,-2.2224,-2.2197,-2.2198,-2.2203,-2.2175,-2.2167,-2.2166,-2.216,-2.2111,-2.21,-2.2113,-2.2087,-2.2113,-2.2112,-2.2108,-2.1966,-2.1957,-2.2135,-2.2135,-2.2135,-2.2135,-2.2135,-2.2135,-2.244,-2.2465,-2.2429,-2.2442,-2.2411,-2.2414,-2.2403,-2.2386,-2.2364,-2.2365,-2.2359,-2.2326,-2.229,-2.2276,-2.227,-2.2255,-2.2256,-2.2292,-2.2269,-2.2138,-2.2118,-2.2099,-2.2089,-2.2292,-2.2293,-2.2411,-2.2412,-2.2413]},{"header":{"parameterUnit":"m.s-1","parameterCategory":1,"la1":30.2991,"la2":30.254,"lo1":-89.0895,"lo2":-89.0444,"dy":0.0017,"dx":0.0017,"nx":28,"ny":28,"refTime":"2025-08-07T21:00:00:Z","depth":0,"parameterNumber":3,"parameterNumberName":"V-component_of_WINDS"},"data":[0,0,0,0,0,0,0,0,0,0,0,0,0,0,0,0,0,0,0,0,0,0,0,0,0,0,0,0,0,0,0,0,0,0,0,0,0,0,0,0,0,0,0,0,0,0,0,0,0,0,0,0,0,0,0,0,0,0,-1.679,-1.6792,0,-1.6904,-1.6905,-1.6906,-1.6948,-1.6948,-1.6948,-1.6947,-1.706,-1.7063,-1.7066,0,0,0,0,0,0,0,0,0,0,0,0,0,-1.6607,-1.6611,-1.679,-1.6792,-1.6793,-1.6904,-1.6905,-1.6907,-1.6948,-1.6948,-1.6948,-1.6947,-1.7059,-1.7063,-1.7067,0,0,0,0,0,0,0,0,0,0,0,0,0,-1.67,-1.6612,-1.679,-1.6827,-1.6832,-1.6903,-1.6905,-1.6907,-1.6949,-1.6948,-1.6948,-1.6947,-1.7057,-1.7062,-1.7067,-1.7109,0,0,-1.7082,-1.7084,0,0,0,0,0,0,0,0,-1.6695,-1.6707,-1.6821,-1.6825,-1.683,-1.6912,-1.6882,-1.6975,-1.6949,-1.6904,-1.6947,-1.6947,-1.7011,-1.7019,-1.7042,-1.7114,-1.7119,-1.7083,-1.7086,-1.7088,-1.7089,0,0,0,0,0,0,0,-1.6689,-1.6702,-1.6835,-1.6822,-1.6828,-1.6838,-1.685,-1.69,-1.6959,-1.6908,-1.6911,-1.6924,-1.7013,-1.7037,-1.7045,-1.712,-1.7083,-1.7087,-1.709,-1.7092,-1.7233,-1.7234,0,0,0,0,0,0,-1.6676,-1.6697,-1.6832,-1.6839,-1.676,-1.6841,-1.6856,-1.6886,-1.6958,-1.6969,-1.6925,-1.6926,-1.7029,-1.7039,-1.7049,-1.7103,-1.7088,-1.7093,-1.7095,-1.7233,-1.7234,-1.7234,0,0,0,0,0,0,-1.6672,-1.6688,-1.6827,-1.6769,-1.6787,-1.6845,-1.6879,-1.6888,-1.6912,-1.6971,-1.6982,-1.6938,-1.7029,-1.7042,-1.7094,-1.7107,-1.7095,-1.7099,-1.7232,-1.7233,-1.7234,-1.7211,0,0,0,0,0,0,-1.6667,-1.6686,-1.6703,-1.6769,-1.679,-1.6871,-1.688,-1.6891,-1.6921,-1.6924,-1.6987,-1.6996,-1.7029,-1.7086,-1.7099,-1.7114,-1.7103,-1.7231,-1.7232,-1.7234,-1.7211,-1.7211,-1.7211,0,0,0,0,0,-1.666,-1.6691,-1.6704,-1.672,-1.6813,-1.6872,-1.6884,-1.6922,-1.6922,-1.6939,-1.6977,-1.6994,-1.7104,-1.7091,-1.7106,-1.7123,-1.723,-1.7232,-1.7233,-1.7211,-1.7211,-1.7211,0,0,0,0,0,0,-1.6623,-1.67,-1.6715,-1.6768,-1.6813,-1.6879,-1.6901,-1.6921,-1.6966,-1.6966,-1.701,-1.7024,-1.7073,-1.7103,-1.7087,-1.7167,-1.7168,-1.7173,-1.7146,-1.7147,-1.7147,-1.7139,-1.7107,0,0,0,0,0,-1.6622,-1.6665,-1.6729,-1.6769,-1.6792,-1.6842,-1.687,-1.6895,-1.6943,-1.6962,-1.7004,-1.7049,-1.7094,-1.7122,-1.7166,-1.7216,-1.723,-1.7234,-1.7235,-1.7235,-1.7238,-1.7267,-1.727,-1.724,-1.724,-1.724,0,0,-1.6618,-1.6666,-1.6689,-1.6763,-1.6801,-1.6844,-1.6858,-1.6902,-1.6934,-1.6968,-1.7021,-1.7053,-1.7106,-1.7157,-1.7182,-1.7184,-1.725,-1.7237,-1.7236,-1.724,-1.7269,-1.7272,-1.7275,-1.7241,-1.7241,-1.7241,0,0,-1.6634,-1.6674,-1.6713,-1.6751,-1.6809,-1.6843,-1.6852,-1.6915,-1.6939,-1.6992,-1.7019,-1.7057,-1.7133,-1.717,-1.7199,-1.723,-1.7248,-1.7243,-1.7245,-1.7273,-1.7275,-1.7278,-1.7289,-1.7293,-1.7247,-1.7247,-1.7247,0,-1.6622,-1.6688,-1.673,-1.6773,-1.6805,-1.684,-1.688,-1.6914,-1.6983,-1.7004,-1.7005,-1.7102,-1.714,-1.7201,-1.7209,-1.7231,-1.7243,-1.7236,-1.7272,-1.7275,-1.7278,-1.7289,-1.7293,-1.7246,-1.7246,-1.7246,-1.7246,0,-1.6671,-1.6716,-1.674,-1.6808,-1.6843,-1.6883,-1.6931,-1.6961,-1.6984,-1.7018,-1.7072,-1.7119,-1.7174,-1.7191,-1.7213,-1.7255,-1.7255,-1.7264,-1.7265,-1.7279,-1.729,-1.7295,-1.7244,-1.7245,-1.7245,-1.7245,0,0,-1.6665,-1.6757,-1.6765,-1.6796,-1.6864,-1.6899,-1.6942,-1.6997,-1.7022,-1.7069,-1.7106,-1.717,-1.7179,-1.7212,-1.7239,-1.7263,-1.7286,-1.7269,-1.7271,-1.7271,-1.7336,-1.7328,-1.7333,-1.7298,-1.7299,-1.73,-1.7331,0,-1.6689,-1.6769,-1.6808,-1.687,-1.6913,-1.6948,-1.6985,-1.703,-1.7063,-1.7103,-1.7139,-1.7184,-1.7193,-1.7213,-1.7239,-1.7277,-1.7299,-1.7276,-1.7332,-1.7334,-1.7318,-1.7339,-1.7331,-1.7358,-1.7336,-1.7337,-1.7337,0,-1.6728,-1.6777,-1.6843,-1.6907,-1.6926,-1.6959,-1.7014,-1.7052,-1.7104,-1.7126,-1.7164,-1.719,-1.7236,-1.7235,-1.7299,-1.7282,-1.7308,-1.733,-1.7332,-1.7338,-1.7336,-1.7346,-1.7368,-1.7372,-1.7345,-1.7344,-1.7344,0,-1.6718,-1.6799,-1.685,-1.6876,-1.6951,-1.6974,-1.7006,-1.7057,-1.7089,-1.7136,-1.7157,-1.7208,-1.7236,-1.7275,-1.7315,-1.731,-1.7375,-1.7377,-1.7394,-1.7393,-1.7406,-1.7404,-1.7432,-1.7422,-1.7422,-1.7422,-1.7422,0,-1.6741,-1.678,-1.6847,-1.6878,-1.6923,-1.6968,-1.7011,-1.7046,-1.7092,-1.713,-1.7163,-1.7197,-1.7248,-1.7289,-1.732,-1.7368,-1.7381,-1.7399,-1.7407,-1.7397,-1.7394,-1.7413,-1.7413,-1.7423,-1.7423,-1.7423,-1.7423,0,-1.6736,-1.6783,-1.684,-1.6908,-1.6926,-1.6956,-1.7013,-1.7045,-1.708,-1.7128,-1.7141,-1.7196,-1.7246,-1.729,-1.7356,-1.7377,-1.7427,-1.7436,-1.7409,-1.7414,-1.7429,-1.7427,-1.747,-1.7478,-1.7462,-1.7462,-1.7462,0,-1.6748,-1.6779,-1.6851,-1.688,-1.6912,-1.6957,-1.699,-1.7036,-1.7068,-1.713,-1.7154,-1.7207,-1.7252,-1.733,-1.7375,-1.7426,-1.7437,-1.7449,-1.7445,-1.7433,-1.7437,-1.7435,-1.7438,-1.7448,-1.7448,-1.7448,-1.7448,0,-1.6764,-1.6785,-1.6832,-1.6887,-1.6925,-1.697,-1.7016,-1.7037,-1.7092,-1.7126,-1.7179,-1.7214,-1.7282,-1.7334,-1.739,-1.7422,-1.7444,-1.7449,-1.7456,-1.7445,-1.7429,-1.7438,-1.7409,-1.7448,-1.7448,-1.7448,-1.7448,-1.7448,-1.6768,-1.6798,-1.6853,-1.6904,-1.6944,-1.6986,-1.702,-1.706,-1.7105,-1.7165,-1.7189,-1.7243,-1.7295,-1.7373,-1.7405,-1.7447,-1.7451,-1.746,-1.7463,-1.7464,-1.7463,-1.7422,-1.7458,-1.7458,-1.7458,-1.7458,-1.7458,0,-1.6786,-1.6823,-1.687,-1.6934,-1.6974,-1.6993,-1.7045,-1.7077,-1.7124,-1.7172,-1.7216,-1.7276,-1.7328,-1.7377,-1.7431,-1.7455,-1.7467,-1.7468,-1.7466,-1.7473,-1.7457,-1.7446,-1.7458,-1.7458,-1.7458,-1.7458,-1.7458,-1.7458,-1.6799,-1.6852,-1.688,-1.6952,-1.699,-1.7044,-1.7072,-1.7111,-1.7149,-1.7216,-1.726,-1.7292,-1.7341,-1.7398,-1.7446,-1.7459,-1.7477,-1.7476,-1.7492,-1.7475,-1.7474,-1.7474,-1.7464,-1.7479,-1.7479,-1.7505,-1.7505,-1.7505]}]]